[TLELIST] Archives

 

[list_settings.list_name] Current TLEs

March 21st 2012 PST

HST 1 20580U 90037B 12080.17699070 .00001871 00000-0 12585-3 0 9669 2 20580 028.4710 005.9389 0003681 190.5290 169.5189 15.02291105 1339 ISS (ZARYA) 1 25544U 98067A 12081.42315758 .00014996 00000-0 19107-3 0 2248 2 25544 051.6412 202.0315 0016439 179.9676 264.9728 15.59410045764337 CXO 1 25867U 99040B 12081.66666667 .00000048 00000-0 00000+0 0 7147 2 25867 071.7317 011.2753 8751158 277.9823 359.7463 00.37806395 8824 ____________________________________________________________________ These 2-Line ...Continue Reading

[list_settings.list_name] Current TLEs

March 20th 2012 PST

HST 1 20580U 90037B 12080.17699070 .00001871 00000-0 12585-3 0 9669 2 20580 028.4710 005.9389 0003681 190.5290 169.5189 15.02291105 1339 ISS (ZARYA) 1 25544U 98067A 12080.52800631 .00015648 00000-0 19924-3 0 2182 2 25544 051.6409 206.5303 0016565 176.9093 279.4671 15.59384764764199 CXO 1 25867U 99040B 12079.04166667 .00000142 00000-0 00000+0 0 7135 2 25867 071.7076 011.4731 8751767 277.9605 002.4786 00.37805006 8815 ____________________________________________________________________ These 2-Line ...Continue Reading

[list_settings.list_name] Current TLEs

March 19th 2012 PST

HST 1 20580U 90037B 12077.18744901 .00002045 00000-0 13876-3 0 9657 2 20580 028.4709 025.4934 0003716 161.3569 198.7210 15.02280891 882 ISS (ZARYA) 1 25544U 98067A 12079.44051582 .00014616 00000-0 18681-3 0 2110 2 25544 051.6396 211.9954 0016570 173.1252 294.3156 15.59348130764021 CXO 1 25867U 99040B 12079.04166667 .00000142 00000-0 00000+0 0 7135 2 25867 071.7076 011.4731 8751767 277.9605 002.4786 00.37805006 8815 ____________________________________________________________________ These 2-Line ...Continue Reading

[list_settings.list_name] Current TLEs

March 18th 2012 PST

HST 1 20580U 90037B 12077.18744901 .00002045 00000-0 13876-3 0 9657 2 20580 028.4709 025.4934 0003716 161.3569 198.7210 15.02280891 882 ISS (ZARYA) 1 25544U 98067A 12078.13716435 .00021082 00000-0 26660-3 0 2032 2 25544 051.6412 218.5410 0016692 167.8235 178.2928 15.59321128763817 CXO 1 25867U 99040B 12079.04166667 .00000142 00000-0 00000+0 0 7135 2 25867 071.7076 011.4731 8751767 277.9605 002.4786 00.37805006 8815 ____________________________________________________________________ These 2-Line ...Continue Reading

[list_settings.list_name] Current TLEs

March 17th 2012 PST

HST 1 20580U 90037B 12077.18744901 .00002045 00000-0 13876-3 0 9657 2 20580 028.4709 025.4934 0003716 161.3569 198.7210 15.02280891 882 ISS (ZARYA) 1 25544U 98067A 12077.17635417 .00021605 00000-0 27339-3 0 1983 2 25544 051.6411 223.3681 0016918 164.2735 184.7709 15.59282290763665 CXO 1 25867U 99040B 12076.33333333 .00000049 00000-0 00000+0 0 7125 2 25867 071.6887 011.6413 8751428 277.9437 353.9001 00.37802261 8803 ____________________________________________________________________ These 2-Line ...Continue Reading

[list_settings.list_name] Current TLEs

March 16th 2012 PST

HST 1 20580U 90037B 12076.19092972 .00001923 00000-0 12969-3 0 9646 2 20580 028.4710 032.0115 0003690 150.9912 209.0908 15.02276570 739 ISS (ZARYA) 1 25544U 98067A 12076.21650463 .00020970 00000-0 26599-3 0 1942 2 25544 051.6398 228.1894 0017064 161.0106 196.4758 15.59237040763519 CXO 1 25867U 99040B 12076.33333333 .00000049 00000-0 00000+0 0 7125 2 25867 071.6887 011.6413 8751428 277.9437 353.9001 00.37802261 8803 ____________________________________________________________________ These 2-Line ...Continue Reading

[list_settings.list_name] Current TLEs

March 15th 2012 PST

HST 1 20580U 90037B 12075.19440738 .00001841 00000-0 12364-3 0 9639 2 20580 028.4707 038.5295 0003689 141.7876 218.2985 15.02272664 580 ISS (ZARYA) 1 25544U 98067A 12075.45710941 .00020327 00000-0 25839-3 0 1891 2 25544 051.6404 232.0048 0017066 157.8352 254.1743 15.59202267763407 CXO 1 25867U 99040B 12071.08333333 -.00000028 00000-0 00000+0 0 7119 2 25867 071.6410 012.0483 8748050 277.8849 359.4458 00.37806776 8789 ____________________________________________________________________ These 2-Line ...Continue Reading

[list_settings.list_name] Current TLEs

March 14th 2012 PST

HST 1 20580U 90037B 12074.19788148 .00001851 00000-0 12443-3 0 9626 2 20580 028.4707 045.0471 0003682 131.4345 228.6507 15.02269297 436 ISS (ZARYA) 1 25544U 98067A 12074.30653194 .00021315 00000-0 27106-3 0 1831 2 25544 051.6401 237.7852 0017139 153.4438 276.0245 15.59156505763220 CXO 1 25867U 99040B 12071.08333333 -.00000028 00000-0 00000+0 0 7119 2 25867 071.6410 012.0483 8748050 277.8849 359.4458 00.37806776 8789 ____________________________________________________________________ These 2-Line ...Continue Reading

[list_settings.list_name] Current TLEs

March 13th 2012 PST

HST 1 20580U 90037B 12072.20482608 .00002211 00000-0 15109-3 0 9610 2 20580 028.4700 058.0881 0003518 110.9236 249.1723 15.02263267 133 ISS (ZARYA) 1 25544U 98067A 12073.34513720 .00021213 00000-0 27015-3 0 1773 2 25544 051.6399 242.6105 0017310 150.9289 278.7655 15.59118724763077 CXO 1 25867U 99040B 12071.08333333 -.00000028 00000-0 00000+0 0 7119 2 25867 071.6410 012.0483 8748050 277.8849 359.4458 00.37806776 8789 ____________________________________________________________________ These 2-Line ...Continue Reading

[list_settings.list_name] Current TLEs

March 12th 2012 PST

HST 1 20580U 90037B 12072.20482608 .00002211 00000-0 15109-3 0 9610 2 20580 028.4700 058.0881 0003518 110.9236 249.1723 15.02263267 133 ISS (ZARYA) 1 25544U 98067A 12072.31823516 .00022607 00000-0 28780-3 0 1729 2 25544 051.6402 247.7698 0017401 147.1260 275.0088 15.59080687762911 CXO 1 25867U 99040B 12071.08333333 -.00000028 00000-0 00000+0 0 7119 2 25867 071.6410 012.0483 8748050 277.8849 359.4458 00.37806776 8789 ____________________________________________________________________ These 2-Line ...Continue Reading
  • This mailing list is a public mailing list - anyone may join or leave, at any time.
  • This mailing list is announce-only.

International Space Station (ISS) / Hubble Space Telescope (HST) / Chandra X-Ray Observatory Orbital Data via EMAIL

Privacy Policy:

Private list